GLOBALSTAR M069 1 31573U 07020C 26124.42698421 -.00000059 00000+0 30900-3 0 9998 2 31573 52.0060 15.9832 0002526 61.0131 111.4863 12.23470390873440 GLOBALSTAR M072 1 31574U 07020D 26124.50685235 -.00000048 00000+0 48969-3 0 9999 2 31574 51.9926 216.5356 0001417 205.5278 167.2693 11.91657601869772 GLOBALSTAR M066 1 32265U 07048C 26124.44085872 -.00000074 00000+0 17414-3 0 9991 2 32265 51.9569 183.4968 0004487 307.8561 64.6362 12.30387973854846 GLOBALSTAR M079 1 37188U 10054A 26124.50988242 -.00000083 00000+0 11551-3 0 9997 2 37188 52.0043 241.6304 0000429 149.9142 289.8173 12.62265260717036 GLOBALSTAR M074 1 37189U 10054B 26124.28536616 -.00000083 00000+0 11798-3 0 9990 2 37189 52.0017 241.5860 0000547 110.8297 268.0008 12.62267702717616 GLOBALSTAR M076 1 37190U 10054C 26124.48289845 -.00000084 00000+0 10910-3 0 9999 2 37190 52.0028 241.1824 0000324 105.6951 332.1722 12.62272482717356 GLOBALSTAR M077 1 37191U 10054D 26124.45199979 -.00000089 00000+0 -20744-3 0 9997 2 37191 51.9970 290.3027 0003306 95.9108 290.4468 11.67547321716038 GLOBALSTAR M075 1 37192U 10054E 26124.40428909 -.00000095 00000+0 47205-4 0 9999 2 37192 51.9952 283.5022 0000777 111.0788 268.5341 12.62266327716419 GLOBALSTAR M073 1 37193U 10054F 26124.50321630 -.00000069 00000+0 19528-3 0 9991 2 37193 52.0054 197.2677 0000189 181.2415 287.1203 12.62266728718416 GLOBALSTAR M083 1 37739U 11033A 26124.33684139 -.00000108 00000+0 -21676-4 0 9995 2 37739 51.9840 146.0612 0000117 262.3392 111.1808 12.62262773687418 GLOBALSTAR M088 1 37740U 11033B 26124.50400970 -.00000108 00000+0 -21094-4 0 9999 2 37740 52.0230 51.8734 0000624 61.5754 109.8481 12.62263150682974 GLOBALSTAR M091 1 37741U 11033C 26124.11582852 -.00000087 00000+0 91781-4 0 9992 2 37741 52.0023 16.0853 0000652 88.1553 59.9215 12.62262973683718 GLOBALSTAR M085 1 37742U 11033D 26124.34533964 -.00000093 00000+0 57897-4 0 9995 2 37742 52.0141 326.6417 0000722 109.5165 62.1727 12.62263077684251 GLOBALSTAR M081 1 37743U 11033E 26124.29260799 -.00000089 00000+0 82898-4 0 9997 2 37743 51.9975 329.2891 0000707 89.5305 81.7528 12.62263943684399 GLOBALSTAR M089 1 37744U 11033F 26124.37632086 -.00000096 00000+0 42870-4 0 9993 2 37744 51.9935 283.2013 0000813 88.0375 284.3345 12.62266144685250 GLOBALSTAR M084 1 38040U 11080A 26124.39003127 -.00000096 00000+0 42846-4 0 9998 2 38040 51.9986 150.6168 0000295 38.3360 336.2945 12.62266879663232 GLOBALSTAR M080 1 38041U 11080B 26124.36122866 -.00000088 00000+0 87131-4 0 9995 2 38041 52.0039 152.4080 0000527 154.9738 218.5060 12.62268843663355 GLOBALSTAR M082 1 38042U 11080C 26124.48644249 -.00000120 00000+0 -89534-4 0 9990 2 38042 52.0055 107.5203 0000221 133.2988 19.5586 12.62269471664070 GLOBALSTAR M092 1 38043U 11080D 26124.27755087 -.00000070 00000+0 18591-3 0 9998 2 38043 52.0074 198.5534 0000356 128.8495 273.6098 12.62266933662508 GLOBALSTAR M090 1 38044U 11080E 26124.24475764 -.00000121 00000+0 -98476-4 0 9996 2 38044 52.0106 102.1974 0000191 36.9018 336.2544 12.62268381664166 GLOBALSTAR M086 1 38045U 11080F 26124.29466492 -.00000111 00000+0 -40868-4 0 9991 2 38045 51.9879 102.0471 0000989 329.9979 168.0568 12.62285703664118 GLOBALSTAR M097 1 39072U 13005A 26124.37352229 -.00000097 00000+0 36412-4 0 9994 2 39072 52.0075 16.7044 0000540 79.6495 280.4433 12.62260069611379 GLOBALSTAR M093 1 39073U 13005B 26124.42642784 -.00000087 00000+0 91763-4 0 9998 2 39073 52.0131 9.8760 0000418 82.6257 277.4658 12.62264822611337 GLOBALSTAR M094 1 39074U 13005C 26124.42645992 -.00000099 00000+0 24200-4 0 9998 2 39074 51.9960 284.0381 0000592 124.8800 235.2122 12.62268001612947 GLOBALSTAR M096 1 39075U 13005D 26124.28143262 -.00000096 00000+0 44479-4 0 9993 2 39075 52.0091 333.2464 0000688 102.5416 257.5527 12.62264589611847 GLOBALSTAR M078 1 39076U 13005E 26124.49188029 -.00000089 00000+0 83680-4 0 9996 2 39076 51.9886 56.6699 0000981 135.3765 224.7181 12.62266141610499 GLOBALSTAR M095 1 39077U 13005F 26124.20195891 -.00000110 00000+0 -36588-4 0 9992 2 39077 52.0093 55.0958 0000349 113.8623 246.2281 12.62267309610313 GLOBALSTAR M087 1 52888U 22064A 26124.45295388 -.00000067 00000+0 20320-3 0 9997 2 52888 51.9987 195.6007 0000416 175.7376 184.3494 12.62268668185618